Home   Weather   Arrecife   Past weeks

Flag for Spain Past Weather in Arrecife, Canary Islands, Spain — Yesterday and Last 2 Weeks

Now
73 °F

Passing clouds.


Feels Like: 73 °F
Forecast: N/A
Wind: 3 mph from Southwest

Location: Lanzarote / Aeropuerto

Current Time: Dec 2, 2016 at 6:17:22 pm

Latest Report: Dec 2, 2016 at 5:30 pm


Visibility: N/A

Pressure: 29.92 "Hg

Humidity: 83%

Dew Point: 68 °F

Location of ArrecifeLocation

Past Weather in Arrecife — Graph

°F

Arrecife Temperature Yesterday

Maximum temperature yesterday: 73 °F (at 12:00 pm)
Minimum temperature yesterday: 59 °F (at 6:00 am)
Average temperature yesterday: 69 °F

High & Low Weather Summary for the Past Weeks

 TemperatureHumidityPressure
High77 °F (Nov 21, 2:00 pm)88% (Nov 18, 1:00 am)30.12 "Hg (Nov 18, 1:00 am)
Low59 °F (Nov 24, 10:00 pm)38% (Nov 28, 4:00 pm)29.83 "Hg (Nov 22, 6:00 am)
Average68 °F71%30.01 "Hg
* Reported Nov 17 5:00 pm — Dec 2 5:00 pm, Arrecife, Weather by CustomWeather, © 2016

Note: Actual official high and low records may vary slightly from our data, if they occured in-between our weather recording intervals... More about our weather records

Advertising

Arrecife Weather History for the Previous 24 Hours

Scroll right to see more
 ConditionsComfort  
Time TempWeatherWind HumidityBarometerVisibility
5:00 pm
Fri, Dec 2
73 °FSunny.6 mph83%29.92 "Hg10 mi
4:30 pm73 °FSunny.5 mph83%29.92 "Hg10 mi
4:00 pm75 °FSunny.6 mph83%29.92 "Hg10 mi
3:30 pm75 °FSunny.7 mph78%29.92 "Hg10 mi
3:00 pm75 °FPassing clouds.7 mph78%29.95 "HgN/A
2:30 pm75 °FSunny.7 mph78%29.95 "Hg10 mi
2:00 pm75 °FPassing clouds.6 mph78%29.95 "HgN/A
1:30 pm75 °FSunny.3 mph78%29.95 "Hg10 mi
1:00 pm75 °FSunny.3 mph78%29.98 "Hg10 mi
12:30 pm75 °FSunny.3 mph78%30.01 "Hg10 mi
12:00 pm75 °FSunny.2 mph74%30.01 "Hg10 mi
11:30 am75 °FPassing clouds.5 mph74%30.01 "HgN/A
11:00 am75 °FPassing clouds.2 mph74%30.01 "HgN/A
10:30 am73 °FPassing clouds.3 mph74%30.01 "HgN/A
10:00 am72 °FPassing clouds.No wind73%30.01 "HgN/A
9:30 am72 °FPassing clouds.2 mph73%30.01 "HgN/A
9:00 am68 °FPassing clouds.1 mph83%29.98 "HgN/A
8:30 am66 °FPassing clouds.3 mph83%29.98 "HgN/A
8:00 am66 °FPassing clouds.2 mph78%29.98 "HgN/A
7:30 am66 °FPassing clouds.3 mph78%29.98 "HgN/A
7:00 am68 °FPassing clouds.7 mph73%29.98 "HgN/A
6:30 am68 °FPassing clouds.7 mph73%29.98 "HgN/A
6:00 am68 °FLight rain. Passing clouds.8 mph73%29.98 "HgN/A
1:00 am68 °FPassing clouds.2 mph73%30.04 "HgN/A
12:30 am68 °FPassing clouds.3 mph73%30.04 "HgN/A
12:00 am68 °FPassing clouds.3 mph73%30.04 "HgN/A
11:30 pm
Thu, Dec 1
68 °FPassing clouds.3 mph73%30.07 "HgN/A
11:00 pm68 °FPassing clouds.5 mph73%30.07 "HgN/A
10:30 pm68 °FPassing clouds.2 mph73%30.07 "HgN/A
10:00 pm70 °FPassing clouds.No wind69%30.07 "HgN/A
9:30 pm68 °FPassing clouds.1 mph73%30.04 "HgN/A
9:00 pm70 °FPassing clouds.No wind73%30.07 "HgN/A
8:30 pm70 °FPassing clouds.No wind73%30.07 "HgN/A
8:00 pm72 °FPassing clouds.No wind73%30.07 "HgN/A
7:30 pm72 °FPassing clouds.1 mph73%30.04 "HgN/A
7:00 pm70 °FPassing clouds.3 mph83%30.04 "HgN/A
6:30 pm72 °FPassing clouds.6 mph78%30.04 "HgN/A
6:00 pm72 °FPassing clouds.5 mph78%30.07 "HgN/A
Weather by CustomWeather, © 2016

See weather overviewHow to use our weather pages